User: anonymous   Login
Location: Unspecified
(0.0000°N, 0.0000°E)
Time: 15:36:02
(UTC+00:00)
Language:

USA 229 DEB - Orbit

View from above orbital plane
View from above orbital plane
View from above satellite
View from above satellite

Ground track
Ground track

The orbit data is extracted from the following two-line orbital elements,

1 37391U 11014B   17228.04923731 0.00000000  00000-0  00000-0 0    02
2 37391  63.4390 223.8838 0074000   2.1536 357.8464 13.40729261    04
Epoch (UTC): 16 August 2017 01:10:54
Eccentricity: 0.0074000
inclination: 63.4390°
perigee height: 1051 km
apogee height: 1162 km
right ascension of ascending node: 223.8838°
argument of perigee: 2.1536°
revolutions per day: 13.40729261
mean anomaly at epoch: 357.8464°
orbit number at epoch: 0

The dashed part of the orbit path shows where the satellite is in the earth's shadow,  

DLR